This is the latest recevied weather packets stored in our database for station/object KB2AHZ. If no packets are shown the sender has not sent any weather packets the latest 10 day(s).
| Time | Temp. | Humidity | Pressure | Rain* | Wind** | Luminosity | Snow |
|---|---|---|---|---|---|---|---|
| 1777057470 | 31.11° C | 33% | 1009.1 hPa | 0 mm | - | 801 W/m² | - |
| 1777057166 | 30.56° C | 32% | 1009.2 hPa | 0 mm | - | 482 W/m² | - |
| 1777056861 | 31.11° C | 32% | 1009.1 hPa | 0 mm | - | 827 W/m² | - |
| 1777056555 | 30.56° C | 34% | 1009.4 hPa | 0 mm | - | 852 W/m² | - |
| 1777056250 | 30° C | 35% | 1009.4 hPa | 0 mm | - | 887 W/m² | - |
| 1777055947 | 30° C | 36% | 1009.6 hPa | 0 mm | - | 547 W/m² | - |
| 1777055644 | 30.56° C | 33% | 1009.5 hPa | 0 mm | - | 210 W/m² | - |
| 1777055339 | 30.56° C | 36% | 1009.7 hPa | 0 mm | - | 913 W/m² | - |
| 1777055038 | 30° C | 34% | 1009.7 hPa | 0 mm | - | 904 W/m² | - |
| 1777054734 | 30° C | 34% | 1009.8 hPa | 0 mm | - | 154 W/m² | - |
| 1777054431 | 30.56° C | 36% | 1009.5 hPa | 0 mm | - | 170 W/m² | - |
| 1777054129 | 31.11° C | 34% | 1009.9 hPa | 0 mm | - | 896 W/m² | - |
| 1777053824 | 30.56° C | 34% | 1009.8 hPa | 0 mm | - | 903 W/m² | - |
| 1777053519 | 30.56° C | 33% | 1010 hPa | 0 mm | - | 937 W/m² | - |
| 1777053215 | 30.56° C | 33% | 1010.1 hPa | 0 mm | - | 202 W/m² | - |
| 1777052912 | 30.56° C | 34% | 1010.1 hPa | 0 mm | - | 927 W/m² | - |
| 1777052607 | 30.56° C | 33% | 1010.2 hPa | 0 mm | - | 928 W/m² | - |
| 1777052303 | 30.56° C | 32% | 1010.3 hPa | 0 mm | - | 880 W/m² | - |
| 1777051999 | 30° C | 32% | 1010.2 hPa | 0 mm | - | 884 W/m² | - |
| 1777051696 | 30° C | 32% | 1010.4 hPa | 0 mm | - | 874 W/m² | - |
| 1777051392 | 30.56° C | 32% | 1010.2 hPa | 0 mm | - | 856 W/m² | - |
| 1777051089 | 30° C | 32% | 1010.2 hPa | 0 mm | - | 831 W/m² | - |
* Rain latest hour (hover to see other rain measurements)
** Current wind speed in m/s (hover to see current wind gust speed)